Weather in Posyolok Imeni Morozova

Russia / Saint-Petersburg and Leningrad Oblast     59°58′28″N   31°02′05″E
temp.,
°C
wind,
m/s
gust,
m/s
humid.,
%
clouds,
%
prec.,
mm/h
press.,
hPa
HPBL,
m
18 may, wed
wed1800:00+4nnw4107911 0.0 1019599
03:00+2nnw278899 0.0 1019156
06:00+4wnw2680100 0.0 1019203
09:00+8nw4765100 0.0 1019988
12:00+11w574996 0.0 10171320
15:00+11w7105076 0.0 10161161
18:00+11w6115318 0.0 1015614
21:00+7w3779100 0.0 1015215
19 may, thu
thu1900:00+5w499182 0.0 1014166
03:00+5nw2583100 0.0 1016119
06:00+5nne277865 0.0 1017273
09:00+8nne3554100 0.0 1018788
12:00+9nne454521 0.0 10191338
15:00+10nne46404 0.0 10191329
18:00+10nne47401 0.0 1020951
21:00+5ene22621 0.0 102033
20 may, fri
fri2000:00+3se11725 0.0 102213
03:00+2se228163 0.0 102331
06:00+3se237710 0.0 1023105
09:00+8e2352100 0.0 1023763
12:00+9ene3444100 0.0 10221119
15:00+9ne4543100 0.0 1021870
18:00+7ne4652100 0.0 1020431
21:00+5ne3772100 0.0 1019202
21 may, sat
sat2100:00+3ene27856 0.0 1019132
03:00+2e23805 0.0 101947
06:00+4e24735 0.0 1019149
09:00+8ne35525 0.0 1019682
12:00+9ne57492 0.0 1018901
15:00+9ne46381 0.0 1017870
18:00+8ne47432 0.0 1016660
21:00+5ne39690 0.0 1016235
22 may, sun
sun2200:00+3ene25760 0.0 101686
03:00+2e22741 0.0 101729
06:00+4ne25695 0.0 1017168
09:00+7ne36476 0.0 1017662
12:00+9ne46413 0.0 1017902
15:00+10nne47410 0.0 1017977
18:00+11nne36435 0.0 1016880
21:00+7nw11625 0.0 101510